FW7889 Weather Reports


time (UTC)temp
C
wind
direction
speed
KPH
gust
KPH
rain 1hr
cm
rain 24hr
cm
rain mn
cm
humidity
%
barometer
mb
20260504045808 5 237 8.0 9.7 0.00 0.00 0.00 99 1063.2
20260504044805 5 244 6.4 8.0 0.00 0.00 0.00 99 1063.6
20260504043800 5 268 0.0 1.6 0.00 0.00 0.00 99 1063.4
20260504042755 5 255 3.2 3.2 0.00 0.00 0.00 99 1063.2
20260504041753 5 267 1.6 1.6 0.00 0.00 0.00 99 1063.1
20260504040750 5 262 0.0 1.6 0.00 0.00 0.00 99 1063.1
20260504035750 5 249 1.6 1.6 0.00 0.00 0.00 99 1063.2
20260504034745 5 243 4.8 4.8 0.00 0.00 0.00 99 1063.4
20260504033745 5 242 4.8 4.8 0.00 0.00 0.00 99 1063.4
20260504032745 5 266 0.0 0.0 0.00 0.00 0.00 99 1063.2
20260504031745 5 261 1.6 1.6 0.00 0.00 0.00 99 1063.5
20260504030744 5 246 4.8 4.8 0.00 0.00 0.00 99 1063.7
20260504025744 5 254 3.2 3.2 0.00 0.00 0.00 99 1063.8
20260504024744 5 249 3.2 3.2 0.00 0.00 0.00 99 1063.9
20260504023743 5 257 3.2 3.2 0.00 0.00 0.00 98 1063.6
20260504022741 5 257 3.2 3.2 0.00 0.00 0.00 96 1064.2
20260504021740 5 258 1.6 1.6 0.00 0.00 0.00 95 1063.9
20260504020740 5 257 1.6 1.6 0.00 0.00 0.00 94 1064.1
20260504015739 5 249 1.6 1.6 0.00 0.00 0.00 93 1063.9
20260504014737 5 256 1.6 1.6 0.00 0.00 0.00 92 1064.1
20260504013732 5 244 3.2 3.2 0.00 0.00 0.00 90 1063.8
20260504012731 5 252 1.6 3.2 0.00 0.00 0.00 88 1064.1
20260504011726 5 252 3.2 3.2 0.00 0.00 0.00 87 1063.8
20260504010725 5 257 1.6 1.6 0.00 0.00 0.00 86 1064.2
20260504005723 5 257 1.6 1.6 0.00 0.00 0.00 84 1063.7
20260504004718 6 264 1.6 3.2 0.00 0.00 0.00 81 1063.8
20260504003717 6 260 6.4 9.7 0.00 0.00 0.00 78 1064.4
20260504002717 6 237 4.8 4.8 0.00 0.00 0.00 75 1064.2
20260504001712 7 212 6.4 9.7 0.00 0.00 0.00 68 1063.9
20260504000711 7 265 4.8 4.8 0.00 0.00 0.00 63 1063.7
20260503235706 7 224 4.8 8.0 0.00 0.00 0.00 62 1063.7
20260503234706 7 234 3.2 3.2 0.00 0.00 0.00 60 1063.6
20260503233701 8 265 1.6 3.2 0.00 0.00 0.00 57 1063.4
20260503232659 8 250 4.8 4.8 0.00 0.00 0.00 56 1063.4
20260503231655 8 250 1.6 1.6 0.00 0.00 0.00 55 1063.3
20260503230653 8 285 4.8 4.8 0.00 0.00 0.00 53 1063.3
20260503225653 8 289 1.6 1.6 0.00 0.00 0.00 52 1063.1
20260503224651 8 306 4.8 4.8 0.00 0.00 0.00 50 1063.0
20260503223646 8 258 1.6 1.6 0.00 0.00 0.00 48 1063.2
20260503222646 8 359 3.2 4.8 0.00 0.00 0.00 47 1063.2
20260503221642 8 277 4.8 11.3 0.00 0.00 0.00 45 1063.3
20260503220641 8 298 12.9 17.7 0.00 0.00 0.00 45 1063.1
20260503215641 8 352 8.0 12.9 0.00 0.00 0.00 44 1063.3
20260503214636 8 293 9.7 12.9 0.00 0.00 0.00 44 1063.1
20260503213631 8 285 9.7 11.3 0.00 0.00 0.00 46 1063.3
20260503212631 8 334 6.4 8.0 0.00 0.00 0.00 46 1063.2
20260503211626 8 235 8.0 11.3 0.00 0.00 0.00 46 1063.3
20260503210623 8 297 8.0 11.3 0.00 0.00 0.00 46 1062.8
20260503205622 9 302 1.6 3.2 0.00 0.00 0.00 46 1062.9
20260503204621 10 257 8.0 11.3 0.00 0.00 0.00 46 1062.7
20260503203621 8 357 6.4 9.7 0.00 0.00 0.00 45 1063.1
20260503202621 8 283 6.4 8.0 0.00 0.00 0.00 43 1062.9
20260503201617 9 264 4.8 4.8 0.00 0.00 0.00 39 1062.9
20260503200615 9 302 8.0 11.3 0.00 0.00 0.00 40 1062.8
20260503195615 9 236 11.3 14.5 0.00 0.00 0.00 37 1062.9
20260503194615 9 269 8.0 9.7 0.00 0.00 0.00 37 1063.2
20260503193613 9 316 8.0 9.7 0.00 0.00 0.00 37 1063.0
20260503192610 9 245 1.6 8.0 0.00 0.00 0.00 36 1063.1
20260503191609 9 258 11.3 14.5 0.00 0.00 0.00 39 1063.3
20260503190609 8 332 17.7 22.5 0.00 0.00 0.00 39 1063.6
20260503185608 8 333 6.4 11.3 0.00 0.00 0.00 41 1063.5
20260503184603 8 321 8.0 11.3 0.00 0.00 0.00 43 1063.6
20260503183603 8 316 6.4 9.7 0.00 0.00 0.00 43 1063.6
20260503182558 8 344 11.3 12.9 0.00 0.00 0.00 43 1063.5
20260503181553 7 6 9.7 11.3 0.00 0.00 0.00 46 1063.7
20260503180552 7 324 11.3 14.5 0.00 0.00 0.00 46 1063.8
20260503175547 7 297 4.8 8.0 0.00 0.00 0.00 46 1063.8
20260503174547 7 337 9.7 12.9 0.00 0.00 0.00 47 1063.9
20260503173544 7 325 8.0 9.7 0.00 0.00 0.00 50 1064.2
20260503172544 7 351 9.7 12.9 0.00 0.00 0.00 48 1064.3
20260503171543 7 274 1.6 1.6 0.00 0.00 0.00 48 1064.1
20260503170543 6 335 8.0 9.7 0.00 0.00 0.00 52 1064.4
20260503150525 5 326 4.8 4.8 0.00 0.00 0.00 57 1065.2
20260503130516 3 266 3.2 3.2 0.00 0.00 0.00 76 1065.8
20260503110447 1 292 0.0 0.0 0.00 0.00 0.00 97 1065.6
20260503090431 0 283 0.0 0.0 0.00 0.00 0.00 98 1065.1
20260503081422 0 284 0.0 0.0 0.00 0.00 0.00 97 1065.5
20260503080421 0 277 0.0 0.0 0.00 0.00 0.00 98 1065.4